Laughlin Air Force Base Del Rio US
ICAO: KDLF
IATA: DLF
Category: Large
Scheduled Services: No

Elevation: 1082 ft
TransAlt. 18000 ft.

Airport Communications:
DEL RIO APP:119.6
ATIS:114.4
CLNC DEL:120.5
DEL RIO DEP:119.6
GND:138.75
PMSV METRO:35.46
PTD:37.22
TWR:125.2

KDLF Zoom In..

Runways:

(A) RW 13C length 8852 ft width 150 ft
ILS 110.30 / hdg 128

(B) RW 13L length 8315 ft width 150 ft
---- / hdg 128

(C) RW 13R length 6571 ft width 150 ft
---- / hdg 128

(D) RW 31C length 8852 ft width 150 ft
ILS 108.90 / hdg 308

(E) RW 31L length 6571 ft width 150 ft
---- / hdg 308

(F) RW 31R length 8315 ft width 150 ft
---- / hdg 308

Location; KDLF
Day. 20 / Time. 09.55 Zulu
* Altimeter: 30.08
* Temperature: 18° c. 64.4°f.
* Wind from: 130° Speed 14 kn with Gusts up to 21 kn.
Dewpoint: 04° c.
Visibility: 10 Statute Miles.
Clouds: Scattered 8000 ft.
Clouds: Broken 19000 ft.

KDLF 200955Z 13014G21KT 10SM SCT080 BKN190 18/04 A3008 RMK AO2A SLP178 T01800035


Wind From 130°
Speed 14 kn.

  YouTube Music Video
 
jpsmedia.com for Web Design  worldairports.se 2018   terms of use